DW5868 Weather Reports


time (UTC)temp
C
wind
direction
speed
KPH
gust
KPH
rain 1hr
cm
rain 24hr
cm
rain mn
cm
humidity
%
barometer
mb
20260504081513 3 302 3.2 16.1 0.00 0.03 0.00 70 1008.0
20260504044550 3 336 6.4 16.1 0.00 0.03 0.03 69 1007.9
20260504043045 3 280 3.2 17.7 0.00 0.03 0.03 73 1007.4
20260504041545 3 244 3.2 17.7 0.00 0.03 0.03 74 1007.3
20260504040047 3 267 9.7 22.5 0.00 0.03 0.03 73 1007.3
20260504034545 3 275 8.0 19.3 0.00 0.03 0.03 74 1007.2
20260504033051 4 275 0.0 24.1 0.00 0.03 0.03 71 1007.2
20260504031545 4 269 3.2 17.7 0.00 0.03 0.03 72 1006.7
20260504030049 3 214 8.0 33.8 0.00 0.03 0.03 79 1006.5
20260504024555 3 249 4.8 30.6 0.00 0.03 0.03 80 1006.2
20260504023045 3 283 4.8 27.4 0.00 0.03 0.03 76 1006.4
20260504021551 3 282 8.0 37.0 0.03 0.03 0.03 80 1006.1
20260504020048 3 198 12.9 33.8 0.03 0.03 0.03 79 1006.3
20260504014541 3 179 6.4 24.1 0.03 0.03 0.03 82 1005.8
20260504013047 3 283 12.9 30.6 0.03 0.03 0.03 80 1006.5
20260504011540 4 221 3.2 9.7 0.00 0.00 0.00 73 1007.2
20260504010037 5 225 1.6 16.1 0.00 0.00 0.00 68 1007.6
20260504004543 7 239 1.6 22.5 0.00 0.00 0.00 58 1007.0
20260504003036 8 203 4.8 11.3 0.00 0.00 0.00 53 1006.7
20260504001537 8 260 4.8 25.7 0.00 0.00 0.00 51 1006.4
20260504000035 10 206 4.8 29.0 0.00 0.00 0.00 49 1006.3
20260503234537 10 286 1.6 17.7 0.00 0.00 0.00 52 1006.2
20260503233035 8 244 4.8 20.9 0.00 0.00 0.00 53 1006.3
20260503231535 8 268 4.8 19.3 0.00 0.00 0.00 53 1006.4
20260503230034 8 237 1.6 11.3 0.00 0.00 0.00 51 1006.4
20260503224535 8 205 1.6 9.7 0.00 0.00 0.00 50 1006.5
20260503223032 8 248 0.0 8.0 0.00 0.00 0.00 49 1006.9
20260503221533 8 53 0.0 3.2 0.00 0.00 0.00 51 1007.0
20260503220034 7 121 0.0 6.4 0.00 0.00 0.00 51 1006.8
20260503214530 8 148 6.4 16.1 0.00 0.00 0.00 51 1007.1
20260503213031 8 163 0.0 6.4 0.00 0.00 0.00 48 1007.3
20260503211537 8 165 0.0 3.2 0.00 0.00 0.00 48 1007.2
20260503210032 8 230 3.2 6.4 0.00 0.00 0.00 46 1007.3
20260503204532 9 37 1.6 16.1 0.00 0.00 0.00 45 1007.3
20260503203030 8 309 0.0 9.7 0.00 0.00 0.00 46 1007.2
20260503201530 8 242 1.6 11.3 0.00 0.00 0.00 45 1007.1
20260503200030 8 198 1.6 6.4 0.00 0.00 0.00 46 1007.4
20260503194533 7 144 0.0 12.9 0.00 0.00 0.00 48 1007.5
20260503193038 7 229 1.6 9.7 0.00 0.00 0.00 51 1007.3
20260503191528 7 199 1.6 12.9 0.00 0.00 0.00 54 1007.4
20260503190039 8 194 3.2 22.5 0.00 0.00 0.00 49 1007.1
20260503184527 8 245 8.0 27.4 0.00 0.00 0.00 46 1006.9
20260503183027 8 241 4.8 24.1 0.00 0.00 0.00 47 1006.8
20260503181527 8 269 3.2 20.9 0.00 0.00 0.00 47 1006.6
20260503180027 10 280 4.8 14.5 0.00 0.00 0.00 46 1006.5
20260503174528 12 267 1.6 8.0 0.00 0.00 0.00 41 1006.6
20260503173025 12 18 0.0 8.0 0.00 0.00 0.00 44 1006.7
20260503171524 11 138 3.2 11.3 0.00 0.00 0.00 45 1006.8